Location: *
(10.5081°N, 66.9194°W)
Time: 04:18:16
(UTC+00:00)

Okean-O - Pass Details

Date: 30 March 2020
Orbit: 639 x 640 km, 98.2° (Epoch: 24 May)

Event Time Altitude Azimuth Distance (km) Brightness Sun altitude
Rises 23:21:19 0° 183° (S) 2,933 6.0 -11.3°
Reaches altitude 10° 23:23:39 10° 192° (SSW) 2,025 5.3 -11.9°
Maximum altitude 23:27:43 37° 259° (W) 1,000 4.3 -12.9°
Drops below altitude 10° 23:31:47 10° 326° (NNW) 2,025 5.8 -13.9°
Sets 23:34:07 0° 335° (NNW) 2,933 6.5 -14.4°
